Regional Weather Roundup
Issued by NWS

Home | Current Version | Previous Version | Graphics & Text | Print | Product List | Glossary On
Versions: 1 2 3 4 5 6 7 8 9 10 11 12 13 14 15 16 17 18 19 20 21 22 23 24 25 26 27 28 29 30 31 32 33 34 35 36 37 38 39 40 41 42 43 44 45 46 47 48 49 50
000
ASUS43 KIND 200609
RWRIN

WEATHER ROUNDUP FOR INDIANA
NATIONAL WEATHER SERVICE INDIANAPOLIS IN
200 AM EDT MON OCT 20 2014

NOTE: "FAIR" INDICATES FEW OR NO CLOUDS BELOW 12,000 FEET WITH NO
SIGNIFICANT WEATHER AND/OR OBSTRUCTIONS TO VISIBILITY.

* - STATION DOES NOT REPORT WEATHER SUCH AS PRECIPITATION OR FOG.

+ - STATION NOT QUALITY CONTROLLED BY THE NATIONAL WEATHER SERVICE.
    USE DATA WITH CAUTION...ESPECIALLY DEWPOINT AND RELATIVE
    HUMIDITY OBSERVATIONS.

INZ001>003-010>013-019-020-200700-
NORTHWEST INDIANA

CITY           SKY/WX    TMP DP  RH WIND       PRES   REMARKS
GARY /AIRPORT/ MOCLDY    52  44  75 SW7       29.92F
KNOX *+        MOCLDY    48  41  77 SW9       29.95F
LA PORTE +     CLOUDY    50  45  83 SW12      29.95F
6HR MIN TEMP:  49; 6HR MAX TEMP:  52;

MICHIGAN CITY+ CLOUDY    50  41  71 S9        29.93F
MONTICELLO +   LGT RAIN  47  43  84 SW9       29.98F
RENSSELAER +   CLOUDY    46  45  93 S7        29.96F
VALPARAISO     MOCLDY    48  42  80 SW9       29.94F
6HR MIN TEMP:  48; 6HR MAX TEMP:  52; 6HR PCP: TRACE;


$$

LMZ046-743>745-200700-
SOUTHERN LAKE MICHIGAN

STATION/POSITION TIME  TEMP WIND        PRES
                       AIR  DIR/SP/G
                 (UTC) (F)  (DEG/KT/KT) (MB)
MICHIGAN CITY    0600   51  170/ 15/ 18   N/A

$$

INZ004-005-014>016-021>024-200700-
NORTH CENTRAL INDIANA

CITY           SKY/WX    TMP DP  RH WIND       PRES   REMARKS
GOSHEN         MOCLDY    49  42  77 SW10      29.95F
6HR MIN TEMP:  49; 6HR MAX TEMP:  50;

LOGANSPORT +   CLOUDY    46  41  81 SW8       29.99F
PERU/GRISSOM   CLOUDY    47  46  97 SW8       29.99S
6HR MIN TEMP:  45; 6HR MAX TEMP:  48;

ROCHESTER +    CLOUDY    50  43  76 SW9       29.98S
SOUTH BEND     CLOUDY    50  43  77 SW12      29.95F
6HR MIN TEMP:  49; 6HR MAX TEMP:  51; 6HR PCP: TRACE;

WARSAW +       CLOUDY    48  41  76 SW5       29.97S

$$

INZ006>009-017-018-025>027-200700-
NORTHEAST INDIANA

CITY           SKY/WX    TMP DP  RH WIND       PRES   REMARKS
ANGOLA *+      MOCLDY    48  37  66 SW5       29.95F
AUBURN +       MOCLDY    48  39  71 SW3       29.99S
FORT WAYNE     CLOUDY    48  42  80 SW9       30.00S
6HR MIN TEMP:  46; 6HR MAX TEMP:  48; 6HR PCP: TRACE;

HUNTINGTON +   CLOUDY    47  42  82 SW6       29.99F
6HR MIN TEMP:  46; 6HR MAX TEMP:  50;


$$

INZ028-029-035-036-043>045-051>053-200700-
WEST CENTRAL INDIANA

CITY           SKY/WX    TMP DP  RH WIND       PRES   REMARKS
GREENCASTLE +  MOCLDY    46  41  81 CALM      30.03F
LAFAYETTE      CLOUDY    47  42  83 SW7       30.00S
6HR MIN TEMP:  46; 6HR MAX TEMP:  50;

TERRE HAUTE    CLOUDY    48  43  82 S6        30.03S
6HR MIN TEMP:  43; 6HR MAX TEMP:  48;


$$

INZ030>032-037>040-046>048-054>057-064-065-200700-
CENTRAL INDIANA

CITY           SKY/WX    TMP DP  RH WIND       PRES   REMARKS
CP ATTERBURY + MOCLDY    41  39  93 CALM      30.04F
FRANKFORT +    CLOUDY    48  43  84 S6        30.02F
GREENWOOD *+   MOCLDY    46  39  76 SW3       30.03F
INDIANAPOLIS   CLOUDY    47  42  83 SW7       30.02F
6HR MIN TEMP:  45; 6HR MAX TEMP:  50;

-EAGLE CREEK   CLOUDY    47  42  83 S7        30.01F
6HR MIN TEMP:  45; 6HR MAX TEMP:  50;

KOKOMO *+      CLOUDY    48  39  71 SW9       30.01F
MARION +       CLOUDY    47  40  77 SW6       30.01F
MT COMFORT *+  CLOUDY    46  39  76 SW5       30.03F
SHELBYVILLE    CLOUDY    47  41  80 S6        30.03F
6HR MIN TEMP:  45; 6HR MAX TEMP:  50;

ZIONSVILLE +   CLOUDY    48  41  76 SW7       30.02F
6HR MIN TEMP:  44; 6HR MAX TEMP:  48;


$$

INZ033-034-041-042-049-050-058-059-200700-
EAST CENTRAL INDIANA

CITY           SKY/WX    TMP DP  RH WIND       PRES   REMARKS
MUNCIE         CLOUDY    47  41  80 SW7       30.01S
6HR MIN TEMP:  47; 6HR MAX TEMP:  49;


$$

INZ060-061-067>069-081>083-085>088-200700-
SOUTHWEST INDIANA

CITY           SKY/WX    TMP DP  RH WIND       PRES   REMARKS
EVANSVILLE     PTCLDY    46  44  93 CALM      30.07S
6HR MIN TEMP:  46; 6HR MAX TEMP:  55;

HUNTINGBURG *+ PTCLDY    45  39  81 CALM      30.07F
6HR MIN TEMP:  45; 6HR MAX TEMP:  52;

WASHINGTON +   CLOUDY    47  45  91 S6        30.04F
6HR MIN TEMP:  43; 6HR MAX TEMP:  49;


$$

INZ062-063-066-070>080-084-089>092-200700-
SOUTH CENTRAL AND SOUTHEAST INDIANA

CITY           SKY/WX    TMP DP  RH WIND       PRES   REMARKS
BLOOMINGTON    MOCLDY    47  43  86 CALM      30.04F
6HR MIN TEMP:  42; 6HR MAX TEMP:  47;

NORTH VERNON + MOCLDY    46  46 100 S3        30.06S

$$




USA.gov is the U.S. government's official web portal to all federal, state and local government web resources and services.